Weather History for KASX - October, 2011

Change the Weather History Date:

Monday, October 3, 2011

  Actual Average Record
Temperature  
Mean Temperature 54 °F -  
Max Temperature 73 °F 63 °F 87 °F (1992)
Min Temperature 37 °F 38 °F 21 °F (1999)
Degree Days  
Heating Degree Days 11    
Growing Degree Days 4 (Base 50)    
Moisture  
Dew Point 43 °F    
Average Humidity 92    
Maximum Humidity 100    
Minimum Humidity 51    
Precipitation  
Precipitation 0.00 in - - ()
Sea Level Pressure  
Sea Level Pressure 30.22 in    
Wind  
Wind Speed 1 mph (West)    
Max Wind Speed 8 mph    
Max Gust Speed -    
Visibility 5 miles    
Events Fog    
Averages and records for this station are not official NWS values.
T = Trace of Precipitation, MM = Missing Value Source: NWS Daily Summary

Daily Weather History Graph

Daily Weather History Graph

Search for Another Location

Airport or City:

Trip Planner

Search our weather history database for the weather conditions in past years. The results will help you decide how hot, cold, wet, or windy it might be!

Date:

Astronomy

Oct. 03, 2011 Rise Set
Actual Time 7:04 AM CDT 6:40 PM CDT
Civil Twilight 6:34 AM CDT 7:10 PM CDT
Nautical Twilight 5:59 AM CDT 7:45 PM CDT
Astronomical Twilight 5:23 AM CDT 8:20 PM CDT
Moon 2:21 PM CDT (10/3) 11:25 PM CDT (10/3)
Length of Visible Light 12h 35m
Length of Day
11h 35m
Waxing Crescent, 45% of the Moon is Illuminated
Oct 3
Waxing Crescent
Oct 3
First Quarter
Oct 11
Full
Oct 19
Last Quarter
Oct 26
New

Hourly Weather History & Observations

Time (CDT) Temp. Windchill Dew Point Humidity Pressure Visibility Wind Dir Wind Speed Gust Speed Precip Events Conditions
12:35 AM 42.8 °F - 42.8 °F 100% 30.19 in 1.8 mi Calm Calm - N/A   Clear
12:46 AM 42.8 °F - 42.8 °F 100% 30.20 in 3.0 mi Calm Calm - N/A   Clear
12:53 AM 44.1 °F 42.5 °F 43.0 °F 96% 30.21 in 9.0 mi SW 3.5 mph - N/A   Clear
12:58 AM 42.8 °F 41.1 °F 42.8 °F 100% 30.20 in 1.8 mi WSW 3.5 mph - N/A   Clear
2:40 AM 42.8 °F - 42.8 °F 100% 30.20 in 1.5 mi Calm Calm - N/A   Clear
2:50 AM 42.8 °F - 42.8 °F 100% 30.20 in 3.0 mi Calm Calm - N/A   Clear
2:59 AM 42.8 °F 41.1 °F 42.8 °F 100% 30.20 in 1.8 mi WSW 3.5 mph - N/A   Clear
3:06 AM 42.8 °F - 42.8 °F 100% 30.20 in 3.0 mi Calm Calm - N/A   Clear
3:31 AM 39.2 °F - 39.2 °F 100% 30.21 in 1.5 mi Calm Calm - N/A   Clear
3:44 AM 39.2 °F - 39.2 °F 100% 30.21 in 4.0 mi Calm Calm - N/A   Clear
3:53 AM 39.0 °F - 39.0 °F 100% 30.22 in 10.0 mi Calm Calm - N/A   Clear
4:50 AM 39.2 °F - 39.2 °F 100% 30.22 in 1.8 mi Calm Calm - N/A   Clear
4:53 AM 39.9 °F - 39.9 °F 100% 30.23 in 1.0 mi Calm Calm - N/A   Clear
5:01 AM 39.2 °F - 39.2 °F 100% 30.22 in 0.5 mi Calm Calm - N/A Fog Fog
5:50 AM 39.2 °F - 39.2 °F 100% 30.21 in 2.0 mi Calm Calm - 0.00 in   Clear
5:51 AM 39.0 °F - 39.0 °F 100% 30.23 in 2.0 mi Calm Calm - 0.00 in   Clear
5:59 AM 37.4 °F - 37.4 °F 100% 30.21 in 1.0 mi Calm Calm - N/A   Clear
6:08 AM 37.4 °F - 37.4 °F 100% 30.22 in 0.5 mi Calm Calm - N/A Fog Fog
6:19 AM 37.4 °F - 37.4 °F 100% 30.22 in 2.5 mi Calm Calm - N/A   Clear
6:26 AM 39.2 °F - 39.2 °F 100% 30.22 in 0.8 mi Calm Calm - N/A   Clear
6:48 AM 37.4 °F - 37.4 °F 100% 30.22 in 0.2 mi Calm Calm - N/A Fog Fog
6:53 AM 37.9 °F - 37.9 °F 100% 30.25 in 0.2 mi Calm Calm - N/A Fog Fog
7:00 AM 37.4 °F - 37.4 °F 100% 30.22 in 0.5 mi Calm Calm - N/A Fog Fog
7:13 AM 37.4 °F - 37.4 °F 100% 30.22 in 1.2 mi Calm Calm - N/A   Partly Cloudy
7:22 AM 37.4 °F - 37.4 °F 100% 30.23 in 3.0 mi Calm Calm - N/A   Clear
7:26 AM 37.4 °F - 37.4 °F 100% 30.23 in 1.8 mi Calm Calm - N/A   Clear
7:37 AM 39.2 °F - 37.4 °F 93% 30.23 in 0.8 mi Calm Calm - N/A   Clear
7:53 AM 42.1 °F - 42.1 °F 100% 30.26 in 0.5 mi Calm Calm - N/A Fog Fog
8:01 AM 42.8 °F 41.1 °F 42.8 °F 100% 30.23 in 2.0 mi WSW 3.5 mph - N/A   Clear
8:09 AM 42.8 °F 41.1 °F 42.8 °F 100% 30.23 in 8.0 mi WSW 3.5 mph - N/A   Clear
9:53 AM 55.9 °F - 51.1 °F 84% 30.26 in 10.0 mi Calm Calm - N/A   Clear
10:53 AM 63.0 °F - 52.0 °F 67% 30.25 in 10.0 mi Calm Calm - N/A   Clear
11:53 AM 70.0 °F - 51.1 °F 51% 30.25 in 10.0 mi Calm Calm - N/A   Clear
1:53 PM 70.0 °F - 54.0 °F 57% 30.22 in 10.0 mi NE 6.9 mph - N/A   Clear
2:53 PM 71.1 °F - 52.0 °F 51% 30.20 in 10.0 mi North 8.1 mph - N/A   Clear
3:53 PM 66.9 °F - 52.0 °F 59% 30.19 in 10.0 mi North 8.1 mph - N/A   Clear
4:53 PM 66.0 °F - 51.1 °F 59% 30.20 in 10.0 mi NNE 8.1 mph - N/A   Clear
5:53 PM 61.0 °F - 48.9 °F 64% 30.21 in 10.0 mi ENE 5.8 mph - N/A   Clear
6:53 PM 54.0 °F - 46.0 °F 75% 30.21 in 10.0 mi Calm Calm - N/A   Clear
8:53 PM 48.0 °F - 46.9 °F 96% 30.20 in 10.0 mi SW 4.6 mph - N/A   Clear
9:53 PM 46.0 °F - 46.0 °F 100% 30.20 in 10.0 mi Calm Calm - N/A   Clear
10:53 PM 44.1 °F 41.5 °F 44.1 °F 100% 30.20 in 10.0 mi SSW 4.6 mph - N/A   Clear
11:53 PM 45.0 °F - 44.1 °F 97% 30.21 in 10.0 mi Calm Calm - N/A   Clear